Location: Palau
(42.3086°N, 3.1507°E)
Time: 14:49:35
(UTC+00:00)

X-37B - Pass Details

Date: 12 March 2021
Orbit: 380 x 394 km, 45.0° (Epoch: 07 April)

Event Time Altitude Azimuth Distance (km) Brightness Sun altitude
Rises 18:15:33 0° 214° (SW) 2,256 5.0 -5.5°
Reaches altitude 10° 18:17:54 10° 197° (SSW) 1,408 3.6 -5.9°
Maximum altitude 18:20:23 21° 146° (SE) 932 2.2 -6.3°
Drops below altitude 10° 18:22:53 10° 94° (E) 1,421 2.7 -6.8°
Enters shadow 18:23:06 - 92° (E) 1,490 2.8 -6.8°
